This demonstration page uses our WeatherBlox Daily Observations layout. Learn more.

Left ArrowRight Arrow

39.01783, -85.05884

Hourly Observations for March 14, 2017

Temp ( °F °C ) Dew Point ( °F °C ) Humidity (%) Winds ( mph kmh ) Pressure ( in mb ) Visibility ( mi km ) Precip ( " mm )
12:37 am 00:37 Cloudy with Light Snow 30 -1.1 27 -2.8 88 88 N 12 19 30.09 1019 6 10 0.00 0.03
12:52 am 00:52 Cloudy with Light Snow 29 -1.7 26 -3.3 89 89 N 12 19 30.03 1017 6 10 0.00 0.03
1:52 am 01:52 Cloudy with Light Snow 28 -2.2 25 -3.9 88 88 N 12 19 30.02 1017 6 10 0.00 0.03
2:39 am 02:39 Cloudy 27 -2.8 24 -4.4 89 89 N 14 22 30.06 1018 8 13 0.00 0.03
2:52 am 02:52 Cloudy 27 -2.8 24 -4.4 89 89 N 14 22 30.03 1017 9 14 0.00 0.03
3:52 am 03:52 Cloudy 27 -2.8 22 -5.6 81 81 N 16 26 30.03 1017 10 16 0.00 0.00
4:52 am 04:52 Cloudy 25 -3.9 20 -6.7 81 81 NNW 21 33 30.03 1017 10 16 0.00 0.00
5:52 am 05:52 Cloudy 24 -4.4 19 -7.2 81 81 NNW 16 26 30.05 1018 10 16 0.00 0.00
6:52 am 06:52 Cloudy with Light Snow 23 -5 18 -7.8 81 81 N 16 26 30.06 1018 7 11 0.00 0.03
7:52 am 07:52 Mostly Cloudy 22 -5.6 17 -8.3 82 82 NNW 18 30 30.09 1019 10 16 0.00 0.03
8:52 am 08:52 Cloudy 21 -6.1 15 -9.4 78 78 NNW 21 33 30.11 1020 7 11 0.00 0.00
9:52 am 09:52 Windy with Snow Likely 21 -6.1 15 -9.4 78 78 N 21 33 30.14 1021 5 8 0.00 0.03
10:52 am 10:52 Cloudy with Light Snow 22 -5.6 16 -8.9 78 78 N 17 28 30.15 1021 5 8 0.00 0.03
11:24 am 11:24 Cloudy 23 -5 16 -9 74 74 N 16 26 30.18 1022 9 14 0.00 0.00
11:52 am 11:52 Mostly Cloudy 25 -3.9 16 -8.9 69 69 N 17 28 30.15 1021 10 16 0.00 0.03
12:52 pm 12:52 Mostly Cloudy 28 -2.2 16 -8.9 60 60 N 23 37 30.16 1021 10 16 0.00 0.00
1:52 pm 13:52 Mostly Cloudy 29 -1.7 14 -10 54 54 N 21 33 30.15 1021 10 16 0.00 0.00
2:52 pm 14:52 Partly Cloudy 31 -0.6 14 -10 49 49 N 21 33 30.15 1021 10 16 0.00 0.00
3:52 pm 15:52 Mostly Cloudy 30 -1.1 9 -12.8 41 41 NNW 22 35 30.15 1021 10 16 0.00 0.00
4:52 pm 16:52 Mostly Cloudy 30 -1.1 9 -12.8 41 41 NW 25 41 30.15 1021 10 16 0.00 0.00
5:52 pm 17:52 Cloudy 29 -1.7 10 -12.2 45 45 WNW 21 33 30.15 1021 10 16 0.00 0.00
6:52 pm 18:52 Mostly Cloudy 27 -2.8 12 -11.1 53 53 NW 14 22 30.18 1022 9 14 0.00 0.03
7:52 pm 19:52 Mostly Cloudy 25 -3.9 7 -13.9 46 46 NW 20 31 30.19 1022 10 16 0.00 0.00
8:52 pm 20:52 Partly Cloudy 24 -4.4 10 -12.2 55 55 NNW 15 24 30.21 1023 10 16 0.00 0.00
9:52 pm 21:52 Mostly Cloudy with Light Snow 23 -5 16 -8.9 74 74 NW 20 31 30.22 1023 3 4 0.00 0.03
10:52 pm 22:52 Mostly Cloudy with Light Snow 22 -5.6 15 -9.4 75 75 NW 13 20 30.22 1024 9 14 0.00 0.03
10:59 pm 22:59 Mostly Cloudy with Light Snow 23 -5 15 -9.4 72 72 NW 17 28 30.27 1025 2 3 0.00 0.03
11:01 pm 23:01 Windy with Snow Likely 23 -5 16 -8.9 74 74 NNW 24 39 30.27 1025 1 2 0.00 0.03
11:08 pm 23:08 Windy with Snow Likely 21 -6 18 -8 86 86 NNW 21 33 30.30 1026 2 3 0.00 0.00
11:18 pm 23:18 Cloudy with Light Snow 21 -6 16 -9 80 80 NNW 14 22 30.30 1026 9 14 0.00 0.00
11:52 pm 23:52 Mostly Cloudy 21 -6.1 15 -9.4 78 78 N 9 15 30.23 1024 10 16 0.00 0.03

Powered by AerisWeather